This is the latest recevied weather packets stored in our database for station/object OE-11344. If no packets are shown the sender has not sent any weather packets the latest 10 day(s).
| Time | Temp. | Humidity | Pressure | Rain* | Wind** | Luminosity | Snow |
|---|---|---|---|---|---|---|---|
| 1787979312 | 8.33° C | 95% | 853.6 hPa | 0 mm | - | 6 W/m² | - |
| 1787978485 | 8.33° C | 95% | 853.7 hPa | 0 mm | - | 0 W/m² | - |
| 1787978111 | 8.33° C | 92% | 853.7 hPa | 0 mm | - | 0 W/m² | - |
| 1787977512 | 8.33° C | 94% | 853.8 hPa | 0 mm | - | 0 W/m² | - |
| 1787976685 | 8.33° C | 94% | 853.9 hPa | 0 mm | - | 0 W/m² | - |
| 1787976312 | 8.33° C | 94% | 854.2 hPa | 0 mm | - | 0 W/m² | - |
| 1787975712 | 8.33° C | 94% | 854.2 hPa | 0 mm | - | 0 W/m² | - |
| 1787975112 | 8.33° C | 94% | 854.2 hPa | 0 mm | - | 0 W/m² | - |
| 1787974511 | 8.89° C | 94% | 854.3 hPa | 0 mm | - | 0 W/m² | - |
| 1787973912 | 8.89° C | 94% | 854.3 hPa | 0 mm | - | 0 W/m² | - |
| 1787973084 | 8.89° C | 94% | 854.4 hPa | 0 mm | - | 0 W/m² | - |
| 1787972712 | 8.89° C | 93% | 854.4 hPa | 0.25 mm | - | 0 W/m² | - |
| 1787972112 | 8.89° C | 95% | 854.5 hPa | 0.25 mm | - | 0 W/m² | - |
| 1787971285 | 8.89° C | 94% | 854.6 hPa | 0.51 mm | - | 0 W/m² | - |
| 1787970912 | 8.89° C | 93% | 854.7 hPa | 1.02 mm | - | 0 W/m² | - |
| 1787970312 | 8.89° C | 93% | 854.8 hPa | 3.3 mm | - | 0 W/m² | - |
| 1787969484 | 8.89° C | 94% | 854.8 hPa | 5.08 mm | - | 0 W/m² | - |
| 1787969111 | 8.89° C | 94% | 854.8 hPa | 5.33 mm | - | 0 W/m² | - |
| 1787968512 | 8.89° C | 93% | 854.9 hPa | 5.08 mm | - | 0 W/m² | - |
| 1787967684 | 8.89° C | 96% | 854.9 hPa | 5.08 mm | - | 0 W/m² | - |
| 1787967312 | 8.89° C | 95% | 854.7 hPa | 4.83 mm | - | 0 W/m² | - |
| 1787966712 | 8.89° C | 94% | 854.5 hPa | 4.57 mm | - | 0 W/m² | - |
| 1787965885 | 9.44° C | 91% | 855.4 hPa | 2.03 mm | - | 0 W/m² | - |
| 1787964912 | 10° C | 90% | 854.4 hPa | 0 mm | - | 0 W/m² | - |
| 1787964085 | 10.56° C | 90% | 854.2 hPa | 0.51 mm | - | 0 W/m² | - |
* Rain latest hour (hover to see other rain measurements)
** Current wind speed in m/s (hover to see current wind gust speed)